PROX-1 (44339 NORAD) Tracking and Keplerian Element Data

This shows tracking and keplerian element data for the satellite.

Feedback or suggestion? Click here.




ElementValue
Catalog44339
NamePROX-1
Epoch Orbit329
Epoch Day198.99545264
Epoch Year2019
RAAN61.9768
Inclination24.0007
Eccentricity0.0011005
Argument of Perigee87.5473
Mean Anonmoly272.6285
Mean Motion14.52652543
Decay Rate1.61E-06
L11 44339U 19036A 19198.99545264 .00000161 00000-0 -11944-4 0 9996
L22 44339 24.0007 61.9768 0011005 87.5473 272.6285 14.52652543 3299

Live tracking and technical data element details for PROX-1 (NORAD 44339). PROX-1 can be tracked NOW for your location showing map with azimuth and elevation plus other details from your city location.

Track the satellite on the map from your city or location and see movement details for azimuth, elevation, latitude, longitude, range, height, and movement on the map or in text.







IsCatalogInMostPopularTable: catalog: 44339, numindb: 3
Update: records affected: 1



GetName: 44339 PROX-1

Hit Count: updated at: Fri, 19 Jul 2019 07:43:34 GMT